TimeCDT,TemperatureF,Dew PointF,Humidity,Sea Level PressureIn,VisibilityMPH,Wind Direction,Wind SpeedMPH,Gust SpeedMPH,PrecipitationIn,Events,Conditions,WindDirDegrees,DateUTC
12:53 AM,73.0,73.0,100,29.97,9.0,Calm,Calm,-,N/A,,Clear,0,2013-08-02 05:53:00
1:53 AM,73.0,72.0,96,29.95,9.0,NW,4.6,-,N/A,,Clear,320,2013-08-02 06:53:00
2:53 AM,73.9,73.0,97,29.94,10.0,WNW,4.6,-,N/A,,Clear,300,2013-08-02 07:53:00
3:25 AM,73.4,73.4,100,29.95,9.0,NW,3.5,-,N/A,,Clear,320,2013-08-02 08:25:00
3:53 AM,73.9,73.0,97,29.96,8.0,Calm,Calm,-,N/A,,Clear,0,2013-08-02 08:53:00
4:53 AM,73.0,72.0,96,29.96,8.0,NNW,4.6,-,N/A,,Clear,340,2013-08-02 09:53:00
5:53 AM,73.0,72.0,96,29.97,8.0,Calm,Calm,-,N/A,,Clear,0,2013-08-02 10:53:00
6:53 AM,73.9,73.0,97,29.98,7.0,Calm,Calm,-,N/A,,Partly Cloudy,0,2013-08-02 11:53:00
7:53 AM,78.1,75.0,90,30.00,7.0,North,3.5,-,N/A,,Partly Cloudy,350,2013-08-02 12:53:00
8:53 AM,81.0,75.0,82,30.01,10.0,NNE,5.8,-,N/A,,Clear,20,2013-08-02 13:53:00
9:53 AM,82.9,75.0,77,30.01,10.0,NNE,4.6,-,N/A,,Clear,30,2013-08-02 14:53:00
10:53 AM,84.9,75.9,74,30.02,10.0,NE,5.8,-,N/A,,Partly Cloudy,40,2013-08-02 15:53:00
11:53 AM,87.1,75.0,67,30.02,10.0,ENE,4.6,-,N/A,,Scattered Clouds,60,2013-08-02 16:53:00
12:53 PM,89.1,73.9,61,30.01,10.0,NE,4.6,-,N/A,,Scattered Clouds,50,2013-08-02 17:53:00
1:53 PM,91.0,72.0,53,30.00,10.0,NE,3.5,-,N/A,,Scattered Clouds,50,2013-08-02 18:53:00
2:53 PM,91.9,70.0,48,29.99,10.0,East,4.6,-,N/A,,Scattered Clouds,80,2013-08-02 19:53:00
3:53 PM,91.9,69.1,47,29.97,10.0,ESE,5.8,-,N/A,,Scattered Clouds,120,2013-08-02 20:53:00
4:53 PM,89.1,75.9,65,29.96,10.0,SSE,10.4,-,N/A,,Scattered Clouds,150,2013-08-02 21:53:00
5:53 PM,88.0,75.0,65,29.97,10.0,SSW,8.1,-,N/A,,Clear,200,2013-08-02 22:53:00
6:53 PM,86.0,77.0,74,29.98,10.0,South,4.6,-,N/A,,Clear,180,2013-08-02 23:53:00
7:53 PM,82.9,75.9,79,29.99,10.0,SW,3.5,-,N/A,,Clear,220,2013-08-03 00:53:00
8:53 PM,80.1,77.0,90,30.01,10.0,Calm,Calm,-,N/A,,Clear,0,2013-08-03 01:53:00
9:53 PM,79.0,77.0,94,30.03,10.0,Calm,Calm,-,N/A,,Clear,0,2013-08-03 02:53:00
10:53 PM,78.1,75.9,93,30.04,9.0,Calm,Calm,-,N/A,,Clear,0,2013-08-03 03:53:00
11:53 PM,78.1,75.9,93,30.04,8.0,Calm,Calm,-,N/A,,Clear,0,2013-08-03 04:53:00